Portsmouth, NH

6:40 PM EDT on April 29, 2017 (GMT -0400)
Pease International Tradeport

Weather History for KPSM - October, 2012

Change the Weather History Date:

Wednesday, October 10, 2012

  Actual Average Record
Temperature  
Mean Temperature 52 °F -  
Max Temperature 59 °F 60 °F 82 °F (2011)
Min Temperature 46 °F 42 °F 23 °F (1989)
Degree Days  
Heating Degree Days 12    
Growing Degree Days 2 (Base 50)    
Moisture  
Dew Point 52 °F    
Average Humidity 96    
Maximum Humidity 100    
Minimum Humidity 84    
Precipitation  
Precipitation 0.26 in - - ()
Sea Level Pressure  
Sea Level Pressure 29.92 in    
Wind  
Wind Speed 7 mph (NNE)    
Max Wind Speed 14 mph    
Max Gust Speed -    
Visibility 5 miles    
Events Fog , Rain    
Averages and records for this station are not official NWS values.
T = Trace of Precipitation, MM = Missing Value Source: NWS Daily Summary

Daily Weather History Graph

Daily Weather History Graph

Search for Another Location

Airport or City:

Trip Planner

Search our weather history database for the weather conditions in past years. The results will help you decide how hot, cold, wet, or windy it might be!

Date:

Astronomy

Oct. 10, 2012 Rise Set
Actual Time 6:51 AM EDT 6:08 PM EDT
Civil Twilight 6:22 AM EDT 6:36 PM EDT
Nautical Twilight 5:50 AM EDT 7:09 PM EDT
Astronomical Twilight 5:17 AM EDT 7:42 PM EDT
Moon 1:16 AM EDT (10/10) 3:15 PM EDT (10/10)
Length of Visible Light 12h 13m
Length of Day
11h 16m
Waning Crescent, 27% of the Moon is Illuminated
Oct 10
Waning Crescent
Oct 15
New
Oct 21
First Quarter
Oct 29
Full
Nov 6
Last Quarter

Hourly Weather History & Observations

Time (EDT) Temp. Windchill Dew Point Humidity Pressure Visibility Wind Dir Wind Speed Gust Speed Precip Events Conditions
12:55 AM 48.0 °F - 43.5 °F 84% 30.15 in 10.0 mi NNE 5.8 mph - N/A   Mostly Cloudy
1:55 AM 47.8 °F - 44.4 °F 88% 30.12 in 10.0 mi NNE 3.5 mph - N/A   Mostly Cloudy
2:55 AM 47.5 °F - 44.6 °F 90% 30.13 in 10.0 mi WNW 5.8 mph - N/A   Overcast
3:18 AM 46.4 °F 43.5 °F 44.6 °F 93% 30.12 in 10.0 mi North 5.8 mph - N/A   Overcast
3:55 AM 47.5 °F - 43.5 °F 86% 30.11 in 10.0 mi North 4.6 mph - N/A   Overcast
4:55 AM 48.0 °F - 44.4 °F 87% 30.09 in 10.0 mi North 3.5 mph - N/A   Overcast
5:24 AM 48.2 °F - 44.6 °F 87% 30.08 in 10.0 mi NNE 4.6 mph - N/A   Overcast
5:55 AM 48.7 °F - 45.9 °F 90% 30.09 in 10.0 mi NW 3.5 mph - N/A   Overcast
6:55 AM 48.2 °F - 46.2 °F 93% 30.09 in 8.0 mi West 4.6 mph - N/A   Overcast
7:11 AM 48.2 °F - 46.4 °F 93% 30.08 in 3.0 mi NW 5.8 mph - N/A   Light Drizzle
7:55 AM 48.0 °F - 45.9 °F 92% 30.07 in 3.0 mi North 5.8 mph - 0.00 in   Overcast
8:05 AM 48.2 °F - 46.4 °F 93% 30.06 in 2.0 mi North 6.9 mph - N/A   Light Drizzle
8:35 AM 48.2 °F - 48.2 °F 100% 30.05 in 4.0 mi NNE 6.9 mph - N/A   Mostly Cloudy
8:55 AM 48.7 °F - 47.7 °F 96% 30.04 in 4.0 mi NE 4.6 mph - 0.00 in   Overcast
9:23 AM 50.0 °F - 48.2 °F 94% 30.04 in 4.0 mi NE 5.8 mph - N/A   Light Drizzle
9:55 AM 50.7 °F - 49.6 °F 96% 30.03 in 3.0 mi North 3.5 mph - 0.00 in   Light Drizzle
10:10 AM 50.0 °F - 50.0 °F 100% 30.03 in 1.0 mi North 4.6 mph - N/A   Light Drizzle
10:55 AM 51.6 °F - 51.3 °F 99% 30.00 in 1.2 mi NE 5.8 mph - 0.00 in   Light Drizzle
12:07 PM 53.6 °F - 53.6 °F 100% 29.96 in 1.5 mi NE 6.9 mph - N/A Rain Light Rain
12:32 PM 53.6 °F - 53.6 °F 100% 29.94 in 4.0 mi ENE 6.9 mph - N/A Rain Light Rain
12:55 PM 54.1 °F - 53.8 °F 99% 29.92 in 4.0 mi ENE 8.1 mph - 0.02 in Rain Light Rain
1:17 PM 53.6 °F - 53.6 °F 100% 29.90 in 1.5 mi ENE 8.1 mph - N/A Rain Light Rain
1:55 PM 54.7 °F - 54.5 °F 99% 29.88 in 3.0 mi ENE 9.2 mph - 0.00 in Rain Light Rain
2:02 PM 55.4 °F - 55.4 °F 100% 29.88 in 1.0 mi East 8.1 mph - N/A Rain Light Rain
2:27 PM 55.4 °F - 55.4 °F 100% 29.85 in 2.0 mi East 9.2 mph - N/A Rain Light Rain
2:55 PM 56.7 °F - 56.3 °F 99% 29.83 in 2.0 mi East 12.7 mph - 0.04 in Rain Light Rain
3:10 PM 57.2 °F - 57.2 °F 100% 29.82 in 1.0 mi East 12.7 mph - N/A Rain Light Rain
3:55 PM 57.9 °F - 57.7 °F 99% 29.80 in 1.0 mi ESE 9.2 mph - 0.04 in Rain Light Rain
4:49 PM 59.0 °F - 59.0 °F 100% 29.75 in 0.6 mi ESE 12.7 mph - N/A Rain Light Rain
4:55 PM 58.6 °F - 58.3 °F 99% 29.75 in 0.5 mi ESE 13.8 mph - 0.05 in Fog , Rain Light Rain
5:15 PM 59.0 °F - 59.0 °F 100% 29.73 in 1.0 mi SE 8.1 mph - N/A Rain Light Rain
5:55 PM 59.0 °F - 58.6 °F 99% 29.72 in 1.0 mi SE 12.7 mph - 0.07 in Rain Light Rain
6:55 PM 59.0 °F - 58.6 °F 99% 29.70 in 3.0 mi SSE 9.2 mph - 0.04 in   Light Drizzle
7:55 PM 59.4 °F - 59.0 °F 99% 29.70 in 5.0 mi WSW 5.8 mph - 0.00 in   Overcast
8:22 PM 59.0 °F - 59.0 °F 100% 29.69 in 7.0 mi SW 6.9 mph - N/A   Mostly Cloudy
8:55 PM 57.6 °F - 57.2 °F 99% 29.70 in 10.0 mi WSW 8.1 mph - N/A   Mostly Cloudy
9:33 PM 57.2 °F - 55.4 °F 94% 29.70 in 10.0 mi WSW 8.1 mph - N/A   Mostly Cloudy
9:55 PM 56.3 °F - 55.4 °F 97% 29.71 in 10.0 mi West 9.2 mph - N/A   Mostly Cloudy
10:55 PM 54.7 °F - 53.1 °F 94% 29.72 in 10.0 mi WSW 8.1 mph - N/A   Partly Cloudy
11:55 PM 54.1 °F - 50.2 °F 86% 29.74 in 10.0 mi West 12.7 mph - N/A   Mostly Cloudy